Weather History for Lawton, OK

Change the Weather History Date:

Saturday, November 2, 2013

  Actual Average Record
Temperature  
Mean Temperature 52 °F -  
Max Temperature 68 °F 66 °F 86 °F (2012)
Min Temperature 37 °F 42 °F 23 °F (1966)
Degree Days  
Heating Degree Days 14    
Growing Degree Days 2 (Base 50)    
Moisture  
Dew Point 33 °F    
Average Humidity 52    
Maximum Humidity 83    
Minimum Humidity 24    
Precipitation  
Precipitation 0.00 in - - ()
Sea Level Pressure  
Sea Level Pressure 30.24 in    
Wind  
Wind Speed 5 mph (North)    
Max Wind Speed 13 mph    
Max Gust Speed 18 mph    
Visibility 10 miles    
Events      
Averages and records for this station are not official NWS values.
T = Trace of Precipitation, MM = Missing Value Source: NWS Daily Summary

Daily Weather History Graph

Daily Weather History Graph

Search for Another Location

Airport:

Trip Planner

Search our weather history database for the weather conditions in past years. The results will help you decide how hot, cold, wet, or windy it might be!

Date:

Astronomy

Nov. 02, 2013 Rise Set
Actual Time 7:55 AM CDT 6:38 PM CDT
Civil Twilight 7:29 AM CDT 7:04 PM CDT
Nautical Twilight 6:59 AM CDT 7:34 PM CDT
Astronomical Twilight 6:29 AM CDT 8:04 PM CDT
Moon 6:55 AM CDT (11/2) 6:10 PM CDT (11/2)
Length of Visible Light 11h 35m
Length of Day
10h 43m
Waning Crescent, 1% of the Moon is Illuminated
Nov 2
Waning Crescent
Nov 3
New
Nov 9
First Quarter
Nov 17
Full
Nov 25
Last Quarter

Hourly Weather History & Observations

Time (CDT) Temp. Windchill Dew Point Humidity Pressure Visibility Wind Dir Wind Speed Gust Speed Precip Events Conditions
12:53 AM 48.0 °F - 35.1 °F 61% 30.15 in 10.0 mi WNW 5.8 mph - N/A   Clear
1:53 AM 51.1 °F - 33.1 °F 50% 30.16 in 10.0 mi NW 5.8 mph - N/A   Clear
2:53 AM 43.0 °F 40.3 °F 35.1 °F 74% 30.18 in 10.0 mi WNW 4.6 mph - N/A   Clear
3:53 AM 46.0 °F 43.9 °F 32.0 °F 58% 30.19 in 10.0 mi WNW 4.6 mph - N/A   Clear
4:53 AM 42.1 °F 39.2 °F 33.1 °F 70% 30.22 in 10.0 mi WNW 4.6 mph - N/A   Clear
5:53 AM 45.0 °F 41.8 °F 32.0 °F 60% 30.24 in 10.0 mi NNW 5.8 mph - N/A   Clear
6:53 AM 41.0 °F - 32.0 °F 70% 30.27 in 10.0 mi Calm Calm - N/A   Clear
7:53 AM 37.9 °F 35.5 °F 33.1 °F 83% 30.30 in 10.0 mi WSW 3.5 mph - N/A   Clear
8:53 AM 45.0 °F - 37.0 °F 74% 30.32 in 10.0 mi Calm Calm - N/A   Clear
9:53 AM 54.0 °F - 33.1 °F 45% 30.34 in 10.0 mi North 10.4 mph - N/A   Clear
10:53 AM 59.0 °F - 32.0 °F 36% 30.35 in 10.0 mi NNE 9.2 mph - N/A   Clear
11:53 AM 61.0 °F - 28.0 °F 29% 30.34 in 10.0 mi North 12.7 mph - N/A   Clear
12:53 PM 64.0 °F - 28.9 °F 27% 30.32 in 10.0 mi NNE 9.2 mph 16.1 mph N/A   Clear
1:53 PM 64.9 °F - 28.0 °F 25% 30.27 in 10.0 mi NNE 8.1 mph 18.4 mph N/A   Clear
2:53 PM 66.0 °F - 28.9 °F 25% 30.25 in 10.0 mi NE 5.8 mph - N/A   Clear
3:53 PM 66.9 °F - 28.9 °F 24% 30.23 in 10.0 mi North 10.4 mph - N/A   Clear
4:53 PM 66.0 °F - 28.0 °F 24% 30.22 in 10.0 mi Variable 4.6 mph - N/A   Clear
5:53 PM 64.0 °F - 28.9 °F 27% 30.21 in 10.0 mi East 3.5 mph - N/A   Clear
6:53 PM 55.9 °F - 35.1 °F 45% 30.21 in 10.0 mi Calm Calm - N/A   Clear
7:53 PM 50.0 °F - 35.1 °F 57% 30.23 in 8.0 mi Calm Calm - N/A   Clear
8:53 PM 46.9 °F - 37.9 °F 71% 30.22 in 10.0 mi ESE 3.5 mph - N/A   Clear
9:53 PM 48.0 °F - 37.0 °F 66% 30.21 in 10.0 mi ESE 3.5 mph - N/A   Clear
10:53 PM 46.9 °F - 36.0 °F 66% 30.20 in 10.0 mi ESE 4.6 mph - N/A   Clear
11:53 PM 44.1 °F - 35.1 °F 71% 30.19 in 10.0 mi Calm Calm - N/A   Clear